Back to catalog

TIANLIAN-2 03

AliveCommunicationsGEO
NORAD 53100·PAYLOAD·🇨🇳 China

Launched Jul 12, 2022 from Xichang Satellite Launch Center

Loading…

TLE

FreshSource: Space-Track

Epoch: Sep 14, 2026, 13:51 UTC

1 53100U 22078A   26257.57718102  .00000064  00000-0  00000-0 0  9991
2 53100   0.8935  77.7878 0001574 144.5618 349.5613  1.00272623 15444

Track TIANLIAN-2 03 in real time with AllMySat

Download on the App Store